Location: Ab? ar R?sh Ba?r?
(24.1861°N, 32.8847°E)
Time: 21:55:02
(UTC+00:00)

Milstar 3 Cent rocket - Pass Details

Date: 01 June 2022
Orbit: 706 x 5146 km, 28.3° (Epoch: 02 July)

Event Time Altitude Azimuth Distance (km) Brightness Sun altitude
Rises 17:04:07 0° 288° (WNW) 9,303 9.7 -7.3°
Reaches altitude 10° 17:11:37 10° 287° (WNW) 7,849 8.7 -8.8°
Maximum altitude 17:35:55 68° 210° (SSW) 2,808 4.8 -13.6°
Enters shadow 17:45:01 19° 132° (SE) 3,451 4.7 -15.3°
